Content
SEND FEEDBACK

Daily
Averages
Monthly
Summary
United States of America

FAYETTEVILLE, TENNESSEE


Home > North America > United States > Tennessee
Elevation: 700 feet     Latitude: 35 10N     Longitude: 086 33W

WEATHER
 
SELECT A DAY
Number of Records: 305,723;   Date Range: 4/22/02 - 10/24/14
 
SHARE

PRINT THIS DATA

[ ← Previous Day ]
WEATHER ALMANAC - JANUARY 13, 2014
[ Next Day → ]
[ °C ]   °F
Weather ElementAverageHighLow
Temperature47.9 °F50 °F (1:55 am)44.6 °F (7:15 am)
Dewpoint40 °F46.4 °F (6:15 pm)23 °F (3:55 am)
Humidity76.8 %93 % (8:15 am)35 % (3:55 am)
Barometer29.94 in30.08 in (2:15 am)29.83 in (10:55 pm)
Wind Speed5.9 mph15 mph (1:55 pm)
Wind Gust20.7 mph (1:35 pm)
Weather ElementAverage
Visibility7.9 mi
Wind DirectionSE (131 °)

Weather ElementTotal
Precipitation1.19 in
Heating Degree Days17.7 (Base 65)
Averaged from 71 records on January 13, 2014
WEATHER CONDITIONS BREAKOUT
WIND DIRECTION BREAKOUT
WEATHER BY HOUR - JANUARY 13, 2014
[ °C ]   °F
Local TimeTemperatureDewpointHumidityBarometerVisibilityWind DirectionWind SpeedGust SpeedPrecipitationEventsConditions
12:35 AM46.4 °F28.4 °F50 %30.06 in10.0 miSSE (150°)4.6 mphClear
12:55 AM48.2 °F28.4 °F46 %30.06 in10.0 miSSE (150°)6.9 mphClear
1:15 AM46.4 °F30.2 °F53 %30.06 in10.0 miSSE (150°)5.8 mphClear
1:35 AM46.4 °F30.2 °F53 %30.07 in10.0 miSouth (170°)3.5 mphClear
1:55 AM50.0 °F28.4 °F43 %30.07 in10.0 miSouth (180°)4.6 mphClear
2:15 AM50.0 °F26.6 °F40 %30.08 in10.0 miSouth (180°)9.2 mphClear
2:35 AM50.0 °F26.6 °F40 %30.07 in10.0 miSouth (190°)8.1 mphClear
2:55 AM50.0 °F26.6 °F40 %30.07 in10.0 miSouth (180°)6.9 mphClear
3:15 AM50.0 °F24.8 °F37 %30.05 in10.0 miSSE (160°)6.9 mphClear
3:35 AM50.0 °F24.8 °F37 %30.04 in10.0 miSouth (170°)4.6 mphClear
3:55 AM50.0 °F23.0 °F35 %30.04 in10.0 miSSE (160°)4.6 mphClear
4:15 AM50.0 °F26.6 °F40 %30.02 in10.0 miSSE (150°)6.9 mphClear
4:35 AM50.0 °F26.6 °F40 %30.03 in10.0 miSSE (160°)9.2 mphClear
4:55 AM50.0 °F28.4 °F43 %30.01 in10.0 miSSE (150°)9.2 mphClear
5:15 AM50.0 °F30.2 °F47 %30.04 in10.0 miSSW (200°)6.9 mphScattered Clouds
5:35 AM50.0 °F32.0 °F50 %30.04 in10.0 miSouth (190°)8.1 mph16.1 mphScattered Clouds
5:55 AM50.0 °F32.0 °F50 %30.05 in10.0 miSouth (180°)10.4 mph17.3 mphDrizzle
6:15 AM48.2 °F33.8 °F58 %30.05 in10.0 miSouth (180°)9.2 mphRainLight Rain
6:35 AM46.4 °F37.4 °F71 %30.04 in10.0 miSSE (150°)6.9 mph0.01 inRainRain
6:55 AM46.4 °F39.2 °F76 %30.04 in10.0 miSSE (150°)8.1 mph0.03 inRainRain
7:15 AM44.6 °F41.0 °F87 %30.04 in7.0 miSSE (150°)6.9 mph0.02 inRainRain
7:35 AM46.4 °F41.0 °F81 %30.04 in10.0 miSSE (160°)5.8 mph0.03 inDrizzle
7:55 AM44.6 °F41.0 °F87 %30.03 in10.0 miSSE (150°)4.6 mph0.03 inRainLight Rain
8:15 AM44.6 °F42.8 °F93 %30.02 in10.0 miSSE (150°)5.8 mph0.01 inRainLight Rain
8:35 AM46.4 °F42.8 °F87 %30.03 in10.0 miSouth (170°)6.9 mph0.01 inDrizzle
8:55 AM46.4 °F42.8 °F87 %30.02 in7.0 miSouth (170°)6.9 mph0.02 inRainLight Rain
9:15 AM46.4 °F42.8 °F87 %30.02 in7.0 miSE (140°)6.9 mph0.01 inRainLight Rain
9:35 AM46.4 °F42.8 °F87 %30.02 in5.0 miSE (140°)5.8 mph0.03 inRainRain
9:55 AM46.4 °F42.8 °F87 %30.01 in4.0 miSE (140°)5.8 mph0.05 inRainRain
10:15 AM46.4 °F42.8 °F87 %30.01 in4.0 miSSE (160°)3.5 mph0.03 inRainRain
10:35 AM46.4 °F42.8 °F87 %30.00 in4.0 miSE (130°)5.8 mph0.07 inRainRain
10:55 AM44.6 °F42.8 °F93 %29.99 in5.0 miCalm0.10 inRainRain
11:15 AM44.6 °F42.8 °F93 %29.98 in5.0 miSE (140°)4.6 mph0.01 inRainRain
11:35 AM44.6 °F42.8 °F93 %29.97 in5.0 miSE (140°)3.5 mph0.03 inRainRain
11:55 AM46.4 °F44.6 °F93 %29.94 in5.0 miSSE (150°)6.9 mph0.05 inRainRain
12:15 PM46.4 °F44.6 °F93 %29.92 in10.0 miSE (140°)6.9 mph0.02 inRainLight Rain
12:35 PM46.4 °F42.8 °F87 %29.89 in10.0 miSE (130°)5.8 mph0.02 inLight Drizzle
12:55 PM46.4 °F44.6 °F93 %29.88 in10.0 miSE (130°)9.2 mph0.02 inScattered Clouds
1:15 PM50.0 °F44.6 °F82 %29.86 in10.0 miSSE (150°)9.2 mphClear
1:35 PM50.0 °F42.8 °F76 %29.84 in10.0 miSE (140°)12.7 mph20.7 mphScattered Clouds
1:55 PM50.0 °F42.8 °F76 %29.84 in10.0 miSSE (160°)15.0 mph18.4 mphRainLight Rain
2:15 PM50.0 °F42.8 °F76 %29.85 in10.0 miSSE (160°)8.1 mphMostly Cloudy
2:35 PM50.0 °F42.8 °F76 %29.85 in10.0 miSSE (160°)11.5 mph18.4 mphOvercast
2:55 PM50.0 °F42.8 °F76 %29.85 in10.0 miSSE (150°)11.5 mph17.3 mphOvercast
3:15 PM50.0 °F42.8 °F76 %29.84 in10.0 miSE (140°)10.4 mphOvercast
3:35 PM50.0 °F42.8 °F76 %29.85 in10.0 miSE (140°)8.1 mphOvercast
3:55 PM50.0 °F42.8 °F76 %29.85 in10.0 miSE (140°)9.2 mph16.1 mphOvercast
4:15 PM50.0 °F42.8 °F76 %29.85 in5.0 miSE (140°)9.2 mphDrizzle
4:35 PM48.2 °F44.6 °F87 %29.85 in4.0 miSSE (150°)8.1 mphRainHeavy Rain
4:55 PM46.4 °F44.6 °F93 %29.85 in2.5 miSE (140°)4.6 mphRainHeavy Rain
5:15 PM46.4 °F44.6 °F93 %29.85 in4.0 miSSE (150°)4.6 mph0.02 inRainHeavy Rain
5:35 PM46.4 °F44.6 °F93 %29.85 in10.0 miSE (140°)4.6 mph0.02 inDrizzle
5:55 PM46.4 °F44.6 °F93 %29.84 in10.0 miSE (140°)4.6 mph0.03 inRainRain
6:15 PM48.2 °F46.4 °F93 %29.84 in5.0 miSE (140°)4.6 mph0.01 inRainLight Rain
6:35 PM48.2 °F46.4 °F93 %29.84 in10.0 miSE (140°)3.5 mph0.01 inLight Drizzle
6:55 PM48.2 °F46.4 °F93 %29.84 in10.0 miSE (140°)4.6 mph0.01 inDrizzle
7:15 PM48.2 °F46.4 °F93 %29.84 in10.0 miSSE (150°)5.8 mphRainRain
7:35 PM48.2 °F46.4 °F93 %29.84 in10.0 miSE (140°)6.9 mphRainLight Rain
7:55 PM48.2 °F46.4 °F93 %29.85 in10.0 miSE (130°)5.8 mphDrizzle
8:15 PM48.2 °F46.4 °F93 %29.84 in5.0 miSE (140°)4.6 mph0.01 inDrizzle
8:35 PM48.2 °F46.4 °F93 %29.84 in5.0 miCalm0.02 inHeavy Drizzle
8:55 PM48.2 °F46.4 °F93 %29.85 in5.0 miCalm0.03 inRainRain
9:15 PM48.2 °F46.4 °F93 %29.85 in4.0 miCalm0.04 inRainLight Rain
9:35 PM48.2 °F46.4 °F93 %29.84 in5.0 miCalm0.05 inDrizzle
9:55 PM48.2 °F46.4 °F93 %29.84 in5.0 miESE (120°)3.5 mph0.07 inRainRain
10:15 PM48.2 °F46.4 °F93 %29.84 in3.0 miCalmHeavy Drizzle
10:35 PM48.2 °F46.4 °F93 %29.84 in4.0 miCalm0.02 inRainHeavy Rain
10:55 PM48.2 °F46.4 °F93 %29.83 in4.0 miCalm0.06 inRainRain
11:15 PM48.2 °F46.4 °F93 %29.84 in3.0 miSSE (160°)3.5 mph0.04 inRainHeavy Rain
11:35 PM48.2 °F46.4 °F93 %29.83 in5.0 miCalm0.07 inRainLight Rain
11:55 PM48.2 °F46.4 °F93 %29.84 in3.0 miCalm0.08 inRainRain
Hourly data recorded from KMDQ, located miles away from Fayetteville, Tennessee







STORIES FROM OUR PARTNERS